Location: Ar Ranvel
(48.3000°N, 4.8833°W)
Time: 10:31:02
(UTC+00:00)

Cosmos 1844 - Pass Details

Date: 16 June 2021
Orbit: 823 x 867 km, 70.9° (Epoch: 03 August)

Event Time Altitude Azimuth Distance (km) Brightness Sun altitude
Rises 21:17:37 0° 334° (NNW) 3,370 8.6 -7.5°
Reaches altitude 10° 21:20:09 10° 340° (NNW) 2,435 7.4 -7.8°
Maximum altitude 21:25:32 48° 55° (NE) 1,075 4.2 -8.3°
Enters shadow 21:30:50 10° 129° (SE) 2,407 5.4 -8.9°
